Weather reports worldwide

Advertisment
Torino Venaria, Italy (16060): temperature & dewpoint: 11.01.2021 23:00:00 - 17.01.2021 23:00:00 (CET)Torino Venaria, Italy (16060): wind speed: 11.01.2021 23:00:00 - 17.01.2021 23:00:00 (CET)Torino Venaria, Italy (16060): wind direction: 11.01.2021 23:00:00 - 17.01.2021 23:00:00 (CET)Torino Venaria, Italy (16060): reduced air pressure: 11.01.2021 23:00:00 - 17.01.2021 23:00:00 (CET)Torino Venaria, Italy (16060): visibility: 11.01.2021 23:00:00 - 17.01.2021 23:00:00 (CET)Torino Venaria, Italy (16060): precipitation: 11.01.2021 23:00:00 - 17.01.2021 23:00:00 (CET)
Date & Time tt [°C] td [°C] ff [km/h] ff [kn] dd ppp [hPa] vv [km] rr [mm]
17.01.2021 23:00:00 - - - - - - - -
17.01.2021 22:00:00 -5,5 -7,8 4 2 WNW 1018,3 - -
17.01.2021 21:00:00 -4,8 -7,4 4 2 NNW 1017,5 - -
17.01.2021 20:00:00 -4,5 -8,1 4 2 W 1016,8 - -
17.01.2021 19:00:00 -2,2 -5,7 4 2 N 1015,9 - -
17.01.2021 18:00:00 -0,8 -6,0 4 2 WSW 1014,2 - -
17.01.2021 17:00:00 2,3 -4,3 2 1 ESE 1013,3 - -
17.01.2021 16:00:00 3,1 -3,3 5 3 NNE 1013,0 - -
17.01.2021 15:00:00 3,1 -2,5 8 4 NE 1012,4 - -
17.01.2021 14:00:00 2,3 -1,7 8 4 NE 1012,3 - -
17.01.2021 13:00:00 1,5 -0,8 5 3 NE 1012,8 - -
17.01.2021 12:00:00 0,3 0,2 4 2 SW 1012,9 - -
17.01.2021 11:00:00 -1,8 -2,4 4 2 SW 1013,5 - -
17.01.2021 10:00:00 -4,7 -5,8 2 1 W 1014,1 - -
17.01.2021 09:00:00 -7,4 -9,4 2 1 W 1014,2 - -
17.01.2021 08:00:00 -7,4 -9,1 2 1 NW 1014,4 - -
17.01.2021 07:00:00 -7,1 -9,1 4 2 W 1014,3 - 0,0
17.01.2021 06:00:00 -7,1 -8,9 8 4 W 1014,4 - -
17.01.2021 05:00:00 -6,4 -8,1 0 0 N 1014,2 - -
17.01.2021 04:00:00 -6,4 -8,2 2 1 W 1015,2 - -
17.01.2021 03:00:00 -6,5 -8,5 2 1 WNW 1015,8 - -
17.01.2021 02:00:00 -6,3 -8,0 5 3 WNW 1016,7 - -
17.01.2021 01:00:00 -6,2 -8,2 2 1 WNW 1017,1 - 0,0
17.01.2021 00:00:00 -5,2 -7,1 2 1 NW 1017,8 - -
16.01.2021 23:00:00 -5,9 -8,4 4 2 WNW 1018,4 - -
16.01.2021 22:00:00 -4,9 -7,5 0 0 N 1019,0 - -
16.01.2021 21:00:00 -4,9 -8,4 2 1 W 1019,3 - -
16.01.2021 20:00:00 -4,0 -7,7 5 3 NW 1019,3 - -
16.01.2021 19:00:00 -2,5 -7,1 4 2 NW 1019,1 - 0,0
16.01.2021 18:00:00 -1,0 -6,6 4 2 SSW 1018,7 - -
16.01.2021 17:00:00 2,2 -4,4 5 3 SSW 1018,0 - -
16.01.2021 16:00:00 3,2 -3,7 5 3 SSW 1018,1 - -
16.01.2021 15:00:00 4,4 -3,5 8 4 SW 1018,0 - -
16.01.2021 14:00:00 4,5 -3,4 5 3 S 1018,4 - -
16.01.2021 13:00:00 4,7 -3,2 4 2 E 1019,4 - 0,0
16.01.2021 12:00:00 3,0 -1,4 2 1 S 1020,8 - -
16.01.2021 11:00:00 0,2 -0,1 2 1 W 1021,6 - -
16.01.2021 10:00:00 -3,8 -4,8 4 2 WNW 1022,0 - -
16.01.2021 09:00:00 -7,2 -9,2 2 1 W 1021,9 - -
16.01.2021 08:00:00 -8,0 -10,0 4 2 WNW 1021,9 - -
16.01.2021 07:00:00 -7,8 -10,1 4 2 WNW 1021,7 10 0,0
16.01.2021 06:00:00 -7,8 -10,1 0 0 N 1021,6 - -
16.01.2021 05:00:00 -7,1 -9,4 0 0 N 1021,3 - -
16.01.2021 04:00:00 -6,4 -8,4 2 1 WNW 1021,1 - -
16.01.2021 03:00:00 -5,9 -7,6 9 5 WNW 1020,6 - -
16.01.2021 02:00:00 -6,5 -8,6 2 1 NW 1020,2 - -
16.01.2021 01:00:00 -4,7 -6,6 0 0 N 1019,5 - 0,0
16.01.2021 00:00:00 -5,4 -7,7 4 2 WNW 1019,3 - -
15.01.2021 23:00:00 -4,7 -6,9 2 1 NNW 1018,8 - -
15.01.2021 22:00:00 -4,7 -7,3 2 1 NW 1018,4 - -
15.01.2021 21:00:00 -4,4 -8,0 4 2 WNW 1018,2 - -
15.01.2021 20:00:00 -2,6 -6,5 2 1 NW 1017,5 - -
15.01.2021 19:00:00 -1,7 -6,5 0 0 N 1016,8 - 0,0
15.01.2021 18:00:00 0,4 -6,1 2 1 N 1016,3 - -
15.01.2021 17:00:00 2,7 -4,2 2 1 NNE 1015,9 - -
15.01.2021 16:00:00 3,2 -3,7 5 3 NE 1015,5 - -
15.01.2021 15:00:00 3,4 -3,5 5 3 NE 1015,2 - -
15.01.2021 14:00:00 3,3 -3,8 5 3 NE 1015,1 - -
15.01.2021 13:00:00 3,6 -4,0 8 4 NE 1015,6 - 0,0
15.01.2021 12:00:00 3,4 -1,2 8 4 N 1016,0 - -
15.01.2021 11:00:00 0,4 -0,9 2 1 N 1016,2 - -
15.01.2021 10:00:00 -1,6 -3,5 2 1 WNW 1015,9 - -
15.01.2021 09:00:00 -3,9 -7,2 2 1 WNW 1015,6 - -
15.01.2021 08:00:00 -2,5 -5,9 2 1 NW 1015,1 - -
15.01.2021 07:00:00 -2,1 -5,6 4 2 WNW 1014,6 - 0,0
15.01.2021 06:00:00 -1,0 -5,1 2 1 NW 1014,1 - -
15.01.2021 05:00:00 0,3 -3,9 4 2 NW 1014,3 - -
15.01.2021 04:00:00 1,0 -2,6 5 3 WNW 1014,2 - -
15.01.2021 03:00:00 0,6 -3,4 4 2 W 1014,3 - -
15.01.2021 02:00:00 2,1 -2,3 2 1 SW 1013,8 - -
15.01.2021 01:00:00 1,4 -3,2 4 2 S 1014,1 - 0,0
15.01.2021 00:00:00 0,9 -4,6 4 2 NNE 1014,0 - -
14.01.2021 23:00:00 1,7 -4,5 4 2 N 1013,8 - -
14.01.2021 22:00:00 2,1 -2,7 5 3 N 1013,1 - -
14.01.2021 21:00:00 2,5 -2,3 8 4 N 1012,4 - -
14.01.2021 20:00:00 2,4 -1,1 13 7 NNE 1011,6 - -
14.01.2021 19:00:00 4,4 -0,5 18 10 ENE 1009,4 - 0,0
14.01.2021 18:00:00 7,4 -2,7 5 3 NE 1007,2 - -
14.01.2021 17:00:00 9,3 -1,8 8 4 N 1006,0 - -
14.01.2021 16:00:00 10,0 -1,2 11 6 NE 1004,8 - -
14.01.2021 15:00:00 10,2 -1,3 15 8 ENE 1004,0 - -
14.01.2021 14:00:00 9,3 -1,6 11 6 ENE 1004,2 - -
14.01.2021 13:00:00 16,3 -0,1 15 8 WSW 1004,0 - 0,0
14.01.2021 12:00:00 8,1 0,2 4 2 NE 1005,5 - -
14.01.2021 11:00:00 4,0 -1,2 8 4 E 1006,2 - -
14.01.2021 10:00:00 0,5 -0,2 5 3 NNE 1005,9 - -
14.01.2021 09:00:00 -4,6 -5,9 4 2 ESE 1006,6 - -
14.01.2021 08:00:00 -5,2 -6,6 4 2 N 1007,4 - -
14.01.2021 07:00:00 -6,0 -8,0 5 3 W 1008,9 - 0,0
14.01.2021 06:00:00 -5,4 -7,1 4 2 NNW 1009,5 - -
14.01.2021 05:00:00 -5,4 -7,7 4 2 W 1010,2 - -
14.01.2021 04:00:00 -3,0 -4,0 2 1 NNW 1010,9 - -
14.01.2021 03:00:00 -3,8 -5,8 8 4 NE 1010,7 - -
14.01.2021 02:00:00 -4,0 -6,3 2 1 NW 1011,1 - -
14.01.2021 01:00:00 -4,6 -7,1 5 3 SSW 1012,3 - 0,0
14.01.2021 00:00:00 -4,9 -8,0 4 2 S 1013,0 - -
13.01.2021 23:00:00 -3,1 -5,8 4 2 WSW 1013,2 - -
13.01.2021 22:00:00 -3,1 -7,3 4 2 W 1013,1 - -
13.01.2021 21:00:00 -1,7 -6,7 2 1 NNW 1013,5 - -
13.01.2021 20:00:00 -0,2 -5,9 4 2 WNW 1012,9 - -
13.01.2021 19:00:00 0,5 -6,0 8 4 WNW 1013,1 - 0,0
13.01.2021 18:00:00 2,3 -6,2 5 3 WNW 1012,6 - -
13.01.2021 17:00:00 8,3 -4,0 2 1 E 1012,2 - -
13.01.2021 16:00:00 11,8 -1,8 2 1 SSW 1011,5 - -
13.01.2021 15:00:00 11,0 -1,9 4 2 E 1011,4 - -
13.01.2021 14:00:00 10,5 -1,4 4 2 SE 1011,8 - -
13.01.2021 13:00:00 6,6 -2,9 8 4 NNE 1012,7 - 0,0
13.01.2021 12:00:00 6,4 -2,9 8 4 SSE 1012,5 - -
13.01.2021 11:00:00 2,4 -1,8 9 5 SSW 1013,3 - -
13.01.2021 10:00:00 -0,9 -2,2 4 2 W 1013,2 - -
13.01.2021 09:00:00 -5,6 -7,8 4 2 WSW 1013,3 - -
13.01.2021 08:00:00 -7,2 -9,9 4 2 SE 1012,9 - -
13.01.2021 07:00:00 -7,5 -10,1 4 2 SSW 1012,4 - 0,0
13.01.2021 06:00:00 -7,2 -9,8 4 2 SW 1012,5 - -
13.01.2021 05:00:00 -7,8 -11,0 8 4 W 1012,1 - -
13.01.2021 04:00:00 -6,3 -8,8 2 1 SSE 1012,0 - -
13.01.2021 03:00:00 -6,6 -9,2 4 2 W 1011,7 - -
13.01.2021 02:00:00 -7,2 -10,4 4 2 W 1011,8 - -
13.01.2021 01:00:00 -6,6 -9,5 4 2 WSW 1012,1 - 0,0
13.01.2021 00:00:00 -5,9 -8,7 2 1 W 1012,6 - -
12.01.2021 23:00:00 -7,2 -11,8 4 2 W 1012,6 - -
12.01.2021 22:00:00 -5,4 -8,8 4 2 WSW 1012,2 - -
12.01.2021 21:00:00 -4,3 -8,0 4 2 N 1012,4 - -
12.01.2021 20:00:00 -4,8 -10,8 4 2 W 1012,1 - -
12.01.2021 19:00:00 -3,0 -10,0 2 1 W 1011,8 - 0,0
12.01.2021 18:00:00 -1,1 -8,9 5 3 SSW 1011,2 - -
12.01.2021 17:00:00 1,7 -9,4 5 3 SW 1011,1 - -
12.01.2021 16:00:00 3,5 -9,0 8 4 SSW 1011,2 - -
12.01.2021 15:00:00 3,8 -8,4 4 2 SW 1011,9 - -
12.01.2021 14:00:00 3,4 -6,7 5 3 SW 1012,7 - -
12.01.2021 13:00:00 2,6 -4,5 2 1 ESE 1013,7 - 0,0
12.01.2021 12:00:00 0,7 -1,6 2 1 WSW 1015,1 - -
12.01.2021 11:00:00 -3,6 -4,9 2 1 W 1016,1 - -
12.01.2021 10:00:00 -5,4 -7,0 4 2 W 1016,9 - -
12.01.2021 09:00:00 -6,7 -8,7 2 1 NW 1017,1 - -
12.01.2021 08:00:00 -7,2 -9,2 4 2 W 1017,3 - -
12.01.2021 07:00:00 -7,6 -9,7 4 2 NW 1017,8 - 0,0
12.01.2021 06:00:00 -8,1 -10,4 5 3 NW 1018,1 - -
12.01.2021 05:00:00 -8,9 -11,5 4 2 WNW 1018,9 - -
12.01.2021 04:00:00 -8,7 -11,4 5 3 WNW 1019,6 - -
12.01.2021 03:00:00 -8,2 -10,8 4 2 WNW 1020,1 - -
12.01.2021 02:00:00 -8,2 -10,9 4 2 NW 1019,9 - -
12.01.2021 01:00:00 -8,2 -11,4 4 2 NW 1020,1 - 0,0
12.01.2021 00:00:00 -7,5 -10,4 4 2 WNW 1020,4 - -
11.01.2021 23:00:00 -7,7 -11,8 2 1 NNW 1020,6 - -

tt = temperature
td = dewpoint
ff = wind speed
dd = wind direction
ppp = reduced air pressure
vv = visibility
rr = precipitation

Next stations